Regional Weather Roundup
Issued by NWS

Home | Current Version | Previous Version | Graphics & Text | Print | Product List | Glossary On
Versions: 1 2 3 4 5 6 7 8 9 10 11 12 13 14 15 16 17 18 19 20 21 22 23 24 25 26 27 28 29 30 31 32 33 34 35 36 37 38 39 40 41 42 43 44 45 46 47 48 49 50
000
ASUS45 KSLC 031210
RWRUT

UTAH REGIONAL WEATHER ROUNDUP
NATIONAL WEATHER SERVICE SALT LAKE CITY UT
500 AM MST TUE MAR 03 2015

UTZ001>011-023>025-031300-

NORTHERN UTAH

CITY           SKY/WX    TMP DP  RH WIND       PRES   REMARKS
BRIGHAM CITY   CLOUDY    33  32  94 S5        29.80S WCI  29
HILL AFB       LGT SNOW  32  32  99 S10       29.77F FOG     WCI  24
LOGAN          LGT SNOW  34  30  85 W5        29.77S FOG     WCI  30
OGDEN          LGT SNOW  33  32  96 S5        29.78S FOG     WCI  29
PROVO AIRPORT  PTCLDY    34  30  86 E5        29.82S WCI  30
SALT LAKE CITY LGT RAIN  35  32  88 N3        29.79S
VERNAL         PTCLDY    23  22  96 N3        29.77R
WENDOVER       CLOUDY    37  25  60 NW12      29.80R WCI  30
HEBER CITY     CLOUDY    28  27  93 SE6       29.77S WCI  22
WEST JORDAN    CLOUDY    34  30  86 SE7       29.79S WCI  28

$$

UTZ012>022-026-027-031300-

SOUTHERN/CENTRAL UTAH

CITY           SKY/WX    TMP DP  RH WIND       PRES   REMARKS
BLANDING       MOCLDY    29  28  96 CALM      29.95F
BRYCE CANYON   PTCLDY     7   7 100 CALM      29.84F
CEDAR CITY     CLOUDY    27  26  96 SW5       29.86S WCI  22
DELTA          CLEAR     31  29  92 S12       29.82F WCI  21
HANKSVILLE     CLEAR     32  28  86 CALM      29.86R
MILFORD        MOCLDY    30  26  85 S12       29.84F WCI  20
MOAB/CYNLANDS  CLEAR     35  28  75 S6        29.82R WCI  30
PRICE          PTCLDY    25  21  85 NE7       29.79R WCI  17
ST GEORGE      CLOUDY    39  36  87 CALM      29.94F
KANAB          CLOUDY    32  32 100 CALM      29.94S

$$

REGIONAL REPORTS     COLORADO/ARIZONA

CITY           SKY/WX    TMP DP  RH WIND       PRES   REMARKS
CRAIG, CO      SNOW      28  26  92 W14       29.75R VSB 1/2 WCI  17
GRAND JUNCTION CLOUDY    34  27  75 NE6       29.82R WCI  29
RIFLE          CLOUDY    35  24  64 SW12      29.79R WCI  27
MONTROSE       PTCLDY    35  22  58 S8        29.85R WCI  29
CORTEZ         PTCLDY    31  26  82 CALM      29.90S
PAGE, AZ       NOT AVBL
GRAND CANYON   FOG       25  24  96 CALM      29.90F VSB 1/2
KINGMAN        CLEAR     31  28  89 CALM      29.92S
FLAGSTAFF      NOT AVBL

$$

REGIONAL REPORTS    NEVADA/IDAHO/WYOMING

CITY           SKY/WX    TMP DP  RH WIND       PRES   REMARKS
LAS VEGAS, NV  CLEAR     43  35  73 SW5       29.88S
ELY            CLOUDY    24  22  91 S3        29.83S
ELKO           CLOUDY    30  27  88 SW10      29.85R WCI  21
POCATELLO, ID  CLOUDY    30  24  78 W21       29.79R WCI  17
BURLEY         MOCLDY    29  21  72 W15G28    29.78S WCI  18
EVANSTON, WY   LGT SNOW  24  22  91 SW14      29.71F FOG     WCI  12
ROCK SPRINGS   CLOUDY    19  17  92 E15       29.75R WCI   5
KEMMERER       LGT SNOW  21  21 100 W7        29.70S WCI  13

$$


USA.gov is the U.S. government's official web portal to all federal, state and local government web resources and services.